Regional Weather Roundup
Issued by NWS Glasgow, MT

Home | Current Version | Previous Version | Text Only | Print | Product List | Glossary On
Versions: 1 2 3 4 5 6 7 8 9 10 11 12 13 14 15 16 17 18 19 20 21 22 23 24 25 26 27 28 29 30 31 32 33 34 35 36 37 38 39 40 41 42 43 44 45 46 47 48 49 50
000
ASUS45 KGGW 182315
RWRGGW
HOURLY WEATHER ROUNDUP FOR NORTHEAST MONTANA
NATIONAL WEATHER SERVICE GLASGOW MONTANA
400 PM MST THU DEC 18 2014

NOTE: "FAIR" INDICATES FEW OR NO CLOUDS BELOW 12,000 FEET WITH NO
SIGNIFICANT WEATHER AND/OR OBSTRUCTIONS TO VISISBILITY.

NORTHEAST MONTANA


CITY           SKY/WX    TMP DP  RH WIND       PRES   REMARKS
GLASGOW        CLEAR     30  24  78 N3        29.90S
PLENTYWOOD       N/A    N/A N/A N/A N7          N/A
WOLF POINT     CLEAR     30  25  81 N5        29.92S
JORDAN           N/A     39  28  64 W6        29.90R
WINNETT          N/A     39  30  70 NE3         N/A
SIDNEY         CLEAR     28  25  86 CALM      29.96S
GLENDIVE       PTCLDY    34  27  75 S12       29.93S
MALTA            N/A     25  25 100 CALM        N/A

FORT PECK REPORTS


CITY           SKY/WX    TMP DP  RH WIND       PRES   REMARKS
FORT PECK        N/A     34  30  85 SE3         N/A
THE PINES        N/A     35  27  72 NE1         N/A

SOUTHEAST MONTANA


CITY           SKY/WX    TMP DP  RH WIND       PRES   REMARKS
BILLINGS       PTCLDY    36  22  56 W21       29.95R
MILES CITY     CLEAR     34  25  69 SW8       29.94R
BAKER          PTCLDY    34  29  82 W6        29.94R
LIVINGSTON     CLOUDY    42  19  39 W16G28    29.96R

CENTRAL MONTANA


CITY           SKY/WX    TMP DP  RH WIND       PRES   REMARKS
HAVRE          PTCLDY    35  29  78 SW10      29.88S
LEWISTOWN      CLOUDY    38  26  62 SW12      29.90R
GREAT FALLS    PTCLDY    37  26  64 SW13      29.90R
CUT BANK       CLOUDY    38  29  70 W18       29.86R
HELENA         MOCLDY    30  23  75 W5        29.98R
BUTTE          CLOUDY    26  20  77 CALM      29.99S
BOZEMAN        CLOUDY    30  23  75 S6        30.01S

WESTERN MONTANA


CITY           SKY/WX    TMP DP  RH WIND       PRES   REMARKS
MISSOULA       CLOUDY    33  27  78 CALM      30.03R
KALISPELL      NOT AVBL

NORTH DAKOTA


CITY           SKY/WX    TMP DP  RH WIND       PRES   REMARKS
WILLISTON      CLOUDY    28  24  85 SW7       29.95R
DICKINSON      CLEAR     30  24  78 CALM      29.92S
MINOT          CLOUDY    23  18  81 SE6       29.99S
BISMARCK       CLOUDY    27  23  85 S6        30.02F

SOUTHERN SASKATCHEWAN


CITY           SKY/WX    TMP DP  RH WIND       PRES   REMARKS
REGINA         CLOUDY    25  25 100 S7        29.90S
ESTEVAN        FLURRIES  23  21  93 SW8       29.94S
SWIFT CURRENT  CLEAR     25  25 100 SW8       29.82S



USA.gov is the U.S. government's official web portal to all federal, state and local government web resources and services.